Location: Le Moustier
(44.1000°N, 6.5167°E)
Time: 08:07:35
(UTC+00:00)

Cosmos 1980 Rocket - Pass Details

Date: 13 December 2025
Orbit: 830 x 847 km, 71.0° (Epoch: 13 January)

Event Time Altitude Azimuth Distance (km) Brightness Sun altitude
Rises 17:36:24 0° 210° (SSW) 3,387 6.1 -17.3°
Reaches altitude 10° 17:38:51 10° 212° (SSW) 2,453 5.3 -17.7°
Maximum altitude 17:44:28 71° 297° (WNW) 888 2.4 -18.7°
Enters shadow 17:49:07 16° 20° (NNE) 2,091 3.9 -19.5°
